GW2922 Weather Reports


time (UTC)temp
C
wind
direction
speed
KPH
gust
KPH
rain 1hr
cm
rain 24hr
cm
rain mn
cm
humidity
%
barometer
mb
20260504070338 16 115 0.0 0.0 0.00 0.00 0.00 52 1012.1
20260504050715 17 179 0.0 1.6 0.00 0.00 0.00 49 1012.5
20260504050212 17 96 1.6 1.6 0.00 0.00 0.00 49 1012.5
20260504045709 17 157 0.0 1.6 0.00 0.00 0.00 48 1012.5
20260504045204 17 126 1.6 1.6 0.00 0.00 0.00 49 1012.5
20260504044702 17 205 3.2 3.2 0.00 0.00 0.00 48 1012.5
20260504044159 18 103 1.6 1.6 0.00 0.00 0.00 46 1012.5
20260504043656 18 344 1.6 1.6 0.00 0.00 0.00 47 1012.5
20260504043153 18 103 1.6 1.6 0.00 0.00 0.00 47 1012.5
20260504042650 18 111 0.0 1.6 0.00 0.00 0.00 47 1012.5
20260504042147 18 111 1.6 3.2 0.00 0.00 0.00 44 1012.5
20260504041642 18 84 1.6 1.6 0.00 0.00 0.00 45 1012.5
20260504041138 18 75 1.6 1.6 0.00 0.00 0.00 44 1012.5
20260504040636 18 293 1.6 3.2 0.00 0.00 0.00 46 1012.5
20260504040133 18 96 0.0 1.6 0.00 0.00 0.00 49 1012.5
20260504035629 18 120 0.0 1.6 0.00 0.00 0.00 49 1012.5
20260504035126 19 104 1.6 1.6 0.00 0.00 0.00 47 1012.5
20260504034624 19 69 1.6 1.6 0.00 0.00 0.00 43 1012.5
20260504034121 20 90 0.0 1.6 0.00 0.00 0.00 44 1012.1
20260504033619 20 96 0.0 1.6 0.00 0.00 0.00 43 1012.5
20260504033116 20 106 0.0 1.6 0.00 0.00 0.00 40 1012.5
20260504032612 20 105 0.0 1.6 0.00 0.00 0.00 44 1012.5
20260504032109 20 80 0.0 0.0 0.00 0.00 0.00 42 1012.5
20260504031607 20 97 1.6 1.6 0.00 0.00 0.00 40 1012.1
20260504031103 21 73 0.0 1.6 0.00 0.00 0.00 39 1012.5
20260504030600 21 106 1.6 1.6 0.00 0.00 0.00 37 1012.5
20260504030056 21 107 0.0 1.6 0.00 0.00 0.00 38 1012.1
20260504025553 21 111 1.6 1.6 0.00 0.00 0.00 36 1012.1
20260504025050 22 98 0.0 4.8 0.00 0.00 0.00 37 1012.5
20260504024547 22 76 0.0 1.6 0.00 0.00 0.00 35 1012.5
20260504024044 22 96 0.0 3.2 0.00 0.00 0.00 35 1012.5
20260504023540 22 88 1.6 3.2 0.00 0.00 0.00 34 1012.5
20260504023036 22 333 3.2 4.8 0.00 0.00 0.00 34 1012.5
20260504022532 22 60 1.6 3.2 0.00 0.00 0.00 36 1012.5
20260504022029 23 75 1.6 4.8 0.00 0.00 0.00 33 1012.5
20260504021526 23 119 1.6 6.4 0.00 0.00 0.00 34 1012.5
20260504021023 23 87 1.6 3.2 0.00 0.00 0.00 33 1012.5
20260504020520 23 108 1.6 3.2 0.00 0.00 0.00 32 1012.8
20260504020017 23 348 3.2 3.2 0.00 0.00 0.00 31 1012.5
20260504015513 24 206 1.6 3.2 0.00 0.00 0.00 31 1012.5
20260504015009 25 346 1.6 4.8 0.00 0.00 0.00 30 1012.8
20260504014505 25 256 3.2 4.8 0.00 0.00 0.00 30 1012.8
20260504014003 26 91 0.0 3.2 0.00 0.00 0.00 31 1012.8
20260504013501 25 124 0.0 1.6 0.00 0.00 0.00 32 1012.8
20260504012956 25 124 0.0 1.6 0.00 0.00 0.00 32 1012.8
20260504012455 25 107 1.6 6.4 0.00 0.00 0.00 32 1012.8
20260504011952 25 121 0.0 1.6 0.00 0.00 0.00 32 1012.8
20260504011448 25 12 1.6 3.2 0.00 0.00 0.00 32 1013.1
20260504010944 25 40 1.6 3.2 0.00 0.00 0.00 33 1013.1
20260504010440 25 62 1.6 4.8 0.00 0.00 0.00 33 1013.1
20260504005936 26 110 1.6 3.2 0.00 0.00 0.00 31 1013.5
20260504005433 25 148 1.6 3.2 0.00 0.00 0.00 33 1013.1
20260504004931 25 295 3.2 4.8 0.00 0.00 0.00 33 1013.5
20260504004429 25 166 1.6 4.8 0.00 0.00 0.00 33 1013.5
20260504003925 26 335 3.2 4.8 0.00 0.00 0.00 31 1013.5
20260504003422 25 149 1.6 3.2 0.00 0.00 0.00 33 1013.5
20260504002918 27 189 1.6 1.6 0.00 0.00 0.00 31 1013.5
20260504002415 26 100 0.0 3.2 0.00 0.00 0.00 31 1013.5
20260504001913 26 63 4.8 4.8 0.00 0.00 0.00 32 1013.5
20260504001410 26 283 3.2 9.7 0.00 0.00 0.00 32 1013.5
20260504000906 26 69 0.0 3.2 0.00 0.00 0.00 31 1013.5
20260504000404 26 311 3.2 4.8 0.00 0.00 0.00 32 1013.5
20260503235901 25 349 4.8 6.4 0.00 0.00 0.00 33 1013.5
20260503235359 25 147 3.2 4.8 0.00 0.00 0.00 33 1013.8
20260503234856 25 115 3.2 6.4 0.00 0.00 0.00 34 1013.5
20260503234354 26 150 1.6 6.4 0.00 0.00 0.00 33 1013.8
20260503233851 25 109 3.2 4.8 0.00 0.00 0.00 33 1013.8
20260503233347 26 76 4.8 9.7 0.00 0.00 0.00 32 1013.8
20260503232844 26 20 1.6 4.8 0.00 0.00 0.00 33 1013.8
20260503232341 26 322 3.2 3.2 0.00 0.00 0.00 31 1014.1
20260503231839 26 188 1.6 3.2 0.00 0.00 0.00 32 1014.1
20260503231335 25 113 0.0 3.2 0.00 0.00 0.00 32 1014.1
20260503230826 25 350 4.8 9.7 0.00 0.00 0.00 34 1014.1
20260503230323 25 191 4.8 9.7 0.00 0.00 0.00 34 1014.1
20260503225821 25 103 6.4 11.3 0.00 0.00 0.00 34 1014.1
20260503225316 26 135 3.2 6.4 0.00 0.00 0.00 34 1014.1
20260503224813 25 123 0.0 3.2 0.00 0.00 0.00 34 1014.5
20260503224310 25 190 1.6 4.8 0.00 0.00 0.00 34 1014.5
20260503223808 25 39 3.2 4.8 0.00 0.00 0.00 34 1014.5
20260503223305 25 319 3.2 6.4 0.00 0.00 0.00 35 1014.5
20260503222801 25 176 3.2 4.8 0.00 0.00 0.00 35 1014.5
20260503222300 24 323 3.2 9.7 0.00 0.00 0.00 36 1014.8
20260503221757 25 209 3.2 9.7 0.00 0.00 0.00 36 1014.8
20260503221255 25 265 1.6 4.8 0.00 0.00 0.00 36 1014.8
20260503220751 25 246 0.0 6.4 0.00 0.00 0.00 35 1014.8
20260503220248 25 134 3.2 6.4 0.00 0.00 0.00 34 1014.8
20260503215745 25 122 0.0 4.8 0.00 0.00 0.00 33 1015.2
20260503215242 25 38 3.2 4.8 0.00 0.00 0.00 34 1014.8
20260503214740 24 62 3.2 9.7 0.00 0.00 0.00 36 1015.2
20260503214237 25 70 3.2 4.8 0.00 0.00 0.00 36 1015.2
20260503213735 24 129 1.6 6.4 0.00 0.00 0.00 36 1015.2
20260503213232 23 81 1.6 11.3 0.00 0.00 0.00 37 1015.2
20260503212729 23 8 3.2 11.3 0.00 0.00 0.00 37 1015.2
20260503212226 23 21 3.2 14.5 0.00 0.00 0.00 39 1015.2
20260503211724 23 312 3.2 6.4 0.00 0.00 0.00 38 1015.2
20260503211220 23 36 4.8 6.4 0.00 0.00 0.00 39 1015.5
20260503210715 23 65 1.6 6.4 0.00 0.00 0.00 39 1015.5
20260503210213 23 328 3.2 6.4 0.00 0.00 0.00 40 1015.5
20260503205708 24 58 3.2 6.4 0.00 0.00 0.00 38 1015.5
20260503205205 23 16 4.8 12.9 0.00 0.00 0.00 39 1015.5
20260503204701 23 84 1.6 9.7 0.00 0.00 0.00 39 1015.5
20260503204159 23 47 1.6 11.3 0.00 0.00 0.00 37 1015.5
20260503203656 23 33 6.4 11.3 0.00 0.00 0.00 37 1015.2
20260503203154 24 142 1.6 6.4 0.00 0.00 0.00 36 1015.5
20260503202650 23 129 0.0 4.8 0.00 0.00 0.00 36 1015.5
20260503202148 22 194 8.0 11.3 0.00 0.00 0.00 38 1015.5
20260503201646 22 62 6.4 11.3 0.00 0.00 0.00 37 1015.2
20260503201143 23 7 4.8 6.4 0.00 0.00 0.00 37 1015.2
20260503200639 22 86 1.6 9.7 0.00 0.00 0.00 37 1015.5
20260503200136 22 14 3.2 6.4 0.00 0.00 0.00 39 1015.5
20260503195633 22 49 3.2 6.4 0.00 0.00 0.00 40 1015.8
20260503195130 23 354 1.6 4.8 0.00 0.00 0.00 40 1015.8
20260503194627 22 55 1.6 4.8 0.00 0.00 0.00 40 1015.8
20260503194122 22 115 6.4 9.7 0.00 0.00 0.00 42 1015.8
20260503193620 21 60 1.6 6.4 0.00 0.00 0.00 43 1015.8
20260503193115 21 319 6.4 6.4 0.00 0.00 0.00 44 1015.8
20260503192611 21 151 3.2 6.4 0.00 0.00 0.00 44 1015.8
20260503192106 21 30 3.2 6.4 0.00 0.00 0.00 44 1015.8
20260503191604 22 269 4.8 9.7 0.00 0.00 0.00 45 1016.2
20260503191100 22 82 1.6 4.8 0.00 0.00 0.00 45 1016.2
20260503190557 22 45 3.2 9.7 0.00 0.00 0.00 44 1016.2
20260503190054 22 184 1.6 4.8 0.00 0.00 0.00 43 1016.2
20260503185551 21 102 1.6 6.4 0.00 0.00 0.00 45 1015.8
20260503185050 21 61 3.2 6.4 0.00 0.00 0.00 47 1016.2
20260503184546 20 16 6.4 6.4 0.00 0.00 0.00 48 1015.8
20260503184043 20 314 8.0 11.3 0.00 0.00 0.00 47 1016.2
20260503183540 21 318 3.2 9.7 0.00 0.00 0.00 48 1016.2
20260503183037 20 39 3.2 6.4 0.00 0.00 0.00 48 1016.2
20260503182536 21 96 1.6 6.4 0.00 0.00 0.00 46 1016.2
20260503182033 20 78 1.6 4.8 0.00 0.00 0.00 48 1016.5
20260503181530 20 73 3.2 9.7 0.00 0.00 0.00 47 1016.5
20260503181026 21 51 3.2 9.7 0.00 0.00 0.00 46 1016.5
20260503180524 21 51 3.2 9.7 0.00 0.00 0.00 48 1016.5
20260503180021 20 10 3.2 3.2 0.00 0.00 0.00 51 1016.5
20260503175518 19 4 1.6 3.2 0.00 0.00 0.00 54 1016.5
20260503175015 18 321 8.0 11.3 0.00 0.00 0.00 56 1016.5
20260503174513 18 352 3.2 9.7 0.00 0.00 0.00 57 1016.9
20260503174008 18 59 4.8 9.7 0.00 0.00 0.00 58 1016.5
20260503173504 18 251 3.2 6.4 0.00 0.00 0.00 58 1016.9
20260503173000 18 61 3.2 9.7 0.00 0.00 0.00 59 1016.9
20260503172458 18 11 4.8 6.4 0.00 0.00 0.00 59 1016.9
20260503171955 17 95 1.6 6.4 0.00 0.00 0.00 62 1016.9
20260503171451 17 53 1.6 9.7 0.00 0.00 0.00 62 1016.9
20260503170949 17 302 4.8 14.5 0.00 0.00 0.00 62 1016.9
20260503170445 17 307 1.6 9.7 0.00 0.00 0.00 60 1016.9
20260503150837 16 330 4.8 11.3 0.00 0.00 0.00 65 1017.2
20260503150333 16 343 3.2 6.4 0.00 0.00 0.00 65 1017.2
20260503140257 16 39 3.2 6.4 0.00 0.00 0.00 64 1016.9
20260503131227 15 357 1.6 3.2 0.00 0.00 0.00 66 1016.9
20260503130725 15 107 1.6 3.2 0.00 0.00 0.00 66 1016.9
20260503130222 15 108 0.0 3.2 0.00 0.00 0.00 65 1016.9
20260503120148 16 58 0.0 3.2 0.00 0.00 0.00 59 1016.9
20260503110615 16 110 0.0 4.8 0.00 0.00 0.00 56 1016.9
20260503110113 16 87 1.6 1.6 0.00 0.00 0.00 56 1016.9
20260503090501 11 107 0.0 0.0 0.00 0.00 0.00 77 1017.2
20260503081422 12 132 0.0 1.6 0.00 0.00 0.00 75 1016.9
20260503080919 12 147 1.6 1.6 0.00 0.00 0.00 75 1016.9
20260503080410 12 113 0.0 0.0 0.00 0.00 0.00 74 1016.9
20260503072847 13 123 0.0 1.6 0.00 0.00 0.00 71 1016.9